<?xml version="1.0" encoding="utf-8"?>
<gpx xmlns:xsi="http://www.w3.org/2001/XMLSchema-instance" xmlns:xsd="http://www.w3.org/2001/XMLSchema" version="1.1" creator="Shapelink.com" xmlns="http://www.topografix.com/GPX/1/1" xmlns:gpxtpx="http://www.garmin.com/xmlschemas/TrackPointExtension/v1">
  <metadata>
    <name>Gåture 4.92 km, 2025-06-03</name>
    <desc></desc>
    <author><name>Anna Leijon</name></author> 
    <time>1970-01-01T01:00:00Z</time>
  </metadata>
  <trk>
    <name>Gåture 4.92 km, 2025-06-03</name>
    <trkseg>
      <trkpt lat="58.381824" lon="12.337903">
        <ele>47.4286</ele>
        <time>1970-01-01T01:00:00Z</time>
      </trkpt>
      <trkpt lat="58.38174" lon="12.338001">
        <ele>47.375</ele>
        <time>1970-01-01T01:00:00Z</time>
      </trkpt>
      <trkpt lat="58.381676" lon="12.338152">
        <ele>47.3333</ele>
        <time>1970-01-01T01:00:00Z</time>
      </trkpt>
      <trkpt lat="58.381603" lon="12.338266">
        <ele>47.3</ele>
        <time>1970-01-01T01:00:00Z</time>
      </trkpt>
      <trkpt lat="58.38152" lon="12.338369">
        <ele>47.2727</ele>
        <time>1970-01-01T01:00:00Z</time>
      </trkpt>
      <trkpt lat="58.381447" lon="12.33847">
        <ele>47.2727</ele>
        <time>1970-01-01T01:00:00Z</time>
      </trkpt>
      <trkpt lat="58.38139" lon="12.33861">
        <ele>47.2727</ele>
        <time>1970-01-01T01:00:00Z</time>
      </trkpt>
      <trkpt lat="58.381348" lon="12.338759">
        <ele>47.1818</ele>
        <time>1970-01-01T01:00:00Z</time>
      </trkpt>
      <trkpt lat="58.381344" lon="12.338949">
        <ele>47.0909</ele>
        <time>1970-01-01T01:00:00Z</time>
      </trkpt>
      <trkpt lat="58.381313" lon="12.339121">
        <ele>47</ele>
        <time>1970-01-01T01:00:00Z</time>
      </trkpt>
      <trkpt lat="58.381226" lon="12.339174">
        <ele>47</ele>
        <time>1970-01-01T01:00:00Z</time>
      </trkpt>
      <trkpt lat="58.381138" lon="12.3392">
        <ele>47</ele>
        <time>1970-01-01T01:00:00Z</time>
      </trkpt>
      <trkpt lat="58.381046" lon="12.339243">
        <ele>47</ele>
        <time>1970-01-01T01:00:00Z</time>
      </trkpt>
      <trkpt lat="58.380962" lon="12.339323">
        <ele>47</ele>
        <time>1970-01-01T01:00:00Z</time>
      </trkpt>
      <trkpt lat="58.380882" lon="12.339399">
        <ele>47</ele>
        <time>1970-01-01T01:00:00Z</time>
      </trkpt>
      <trkpt lat="58.380806" lon="12.339493">
        <ele>47</ele>
        <time>1970-01-01T01:00:00Z</time>
      </trkpt>
      <trkpt lat="58.38073" lon="12.339601">
        <ele>47</ele>
        <time>1970-01-01T01:00:00Z</time>
      </trkpt>
      <trkpt lat="58.380714" lon="12.339646">
        <ele>47</ele>
        <time>1970-01-01T01:00:00Z</time>
      </trkpt>
      <trkpt lat="58.380722" lon="12.339737">
        <ele>47</ele>
        <time>1970-01-01T01:00:00Z</time>
      </trkpt>
      <trkpt lat="58.380726" lon="12.339774">
        <ele>47</ele>
        <time>1970-01-01T01:00:00Z</time>
      </trkpt>
      <trkpt lat="58.380726" lon="12.339778">
        <ele>47</ele>
        <time>1970-01-01T01:00:00Z</time>
      </trkpt>
      <trkpt lat="58.380688" lon="12.339753">
        <ele>47</ele>
        <time>1970-01-01T01:00:00Z</time>
      </trkpt>
      <trkpt lat="58.38063" lon="12.339802">
        <ele>47</ele>
        <time>1970-01-01T01:00:00Z</time>
      </trkpt>
      <trkpt lat="58.38053" lon="12.339869">
        <ele>47</ele>
        <time>1970-01-01T01:00:00Z</time>
      </trkpt>
      <trkpt lat="58.380447" lon="12.339965">
        <ele>47</ele>
        <time>1970-01-01T01:00:00Z</time>
      </trkpt>
      <trkpt lat="58.380352" lon="12.340048">
        <ele>47.1</ele>
        <time>1970-01-01T01:00:00Z</time>
      </trkpt>
      <trkpt lat="58.380264" lon="12.340128">
        <ele>47.1818</ele>
        <time>1970-01-01T01:00:00Z</time>
      </trkpt>
      <trkpt lat="58.38018" lon="12.340202">
        <ele>47.2727</ele>
        <time>1970-01-01T01:00:00Z</time>
      </trkpt>
      <trkpt lat="58.380096" lon="12.340281">
        <ele>47.3636</ele>
        <time>1970-01-01T01:00:00Z</time>
      </trkpt>
      <trkpt lat="58.38001" lon="12.340357">
        <ele>47.4545</ele>
        <time>1970-01-01T01:00:00Z</time>
      </trkpt>
      <trkpt lat="58.379917" lon="12.340446">
        <ele>47.5455</ele>
        <time>1970-01-01T01:00:00Z</time>
      </trkpt>
      <trkpt lat="58.379826" lon="12.340549">
        <ele>47.6364</ele>
        <time>1970-01-01T01:00:00Z</time>
      </trkpt>
      <trkpt lat="58.37974" lon="12.340599">
        <ele>47.7273</ele>
        <time>1970-01-01T01:00:00Z</time>
      </trkpt>
      <trkpt lat="58.379642" lon="12.340644">
        <ele>47.8182</ele>
        <time>1970-01-01T01:00:00Z</time>
      </trkpt>
      <trkpt lat="58.37955" lon="12.340687">
        <ele>47.9091</ele>
        <time>1970-01-01T01:00:00Z</time>
      </trkpt>
      <trkpt lat="58.379463" lon="12.340729">
        <ele>48.0909</ele>
        <time>1970-01-01T01:00:00Z</time>
      </trkpt>
      <trkpt lat="58.379368" lon="12.340805">
        <ele>48.1818</ele>
        <time>1970-01-01T01:00:00Z</time>
      </trkpt>
      <trkpt lat="58.379284" lon="12.340876">
        <ele>48.2727</ele>
        <time>1970-01-01T01:00:00Z</time>
      </trkpt>
      <trkpt lat="58.3792" lon="12.340956">
        <ele>48.3636</ele>
        <time>1970-01-01T01:00:00Z</time>
      </trkpt>
      <trkpt lat="58.379112" lon="12.341016">
        <ele>48.4545</ele>
        <time>1970-01-01T01:00:00Z</time>
      </trkpt>
      <trkpt lat="58.379017" lon="12.341082">
        <ele>48.5455</ele>
        <time>1970-01-01T01:00:00Z</time>
      </trkpt>
      <trkpt lat="58.37893" lon="12.341153">
        <ele>48.6364</ele>
        <time>1970-01-01T01:00:00Z</time>
      </trkpt>
      <trkpt lat="58.37883" lon="12.341215">
        <ele>48.7273</ele>
        <time>1970-01-01T01:00:00Z</time>
      </trkpt>
      <trkpt lat="58.378742" lon="12.3413">
        <ele>48.8</ele>
        <time>1970-01-01T01:00:00Z</time>
      </trkpt>
      <trkpt lat="58.378662" lon="12.341383">
        <ele>48.8889</ele>
        <time>1970-01-01T01:00:00Z</time>
      </trkpt>
      <trkpt lat="58.378567" lon="12.341455">
        <ele>49</ele>
        <time>1970-01-01T01:00:00Z</time>
      </trkpt>
      <trkpt lat="58.378483" lon="12.341368">
        <ele>49</ele>
        <time>1970-01-01T01:00:00Z</time>
      </trkpt>
      <trkpt lat="58.37849" lon="12.341365">
        <ele>49</ele>
        <time>1970-01-01T01:00:00Z</time>
      </trkpt>
      <trkpt lat="58.37847" lon="12.341301">
        <ele>48</ele>
        <time>1970-01-01T01:00:00Z</time>
      </trkpt>
      <trkpt lat="58.37844" lon="12.341209">
        <ele>48</ele>
        <time>1970-01-01T01:00:00Z</time>
      </trkpt>
      <trkpt lat="58.378407" lon="12.34109">
        <ele>48</ele>
        <time>1970-01-01T01:00:00Z</time>
      </trkpt>
      <trkpt lat="58.3784" lon="12.341056">
        <ele>48.7143</ele>
        <time>1970-01-01T01:00:00Z</time>
      </trkpt>
      <trkpt lat="58.378345" lon="12.340914">
        <ele>48.75</ele>
        <time>1970-01-01T01:00:00Z</time>
      </trkpt>
      <trkpt lat="58.378296" lon="12.340756">
        <ele>48.7778</ele>
        <time>1970-01-01T01:00:00Z</time>
      </trkpt>
      <trkpt lat="58.378242" lon="12.340606">
        <ele>48.7</ele>
        <time>1970-01-01T01:00:00Z</time>
      </trkpt>
      <trkpt lat="58.378197" lon="12.34044">
        <ele>48.6364</ele>
        <time>1970-01-01T01:00:00Z</time>
      </trkpt>
      <trkpt lat="58.378147" lon="12.340274">
        <ele>48.7273</ele>
        <time>1970-01-01T01:00:00Z</time>
      </trkpt>
      <trkpt lat="58.37811" lon="12.340102">
        <ele>48.8182</ele>
        <time>1970-01-01T01:00:00Z</time>
      </trkpt>
      <trkpt lat="58.37806" lon="12.339957">
        <ele>48.8182</ele>
        <time>1970-01-01T01:00:00Z</time>
      </trkpt>
      <trkpt lat="58.37801" lon="12.339793">
        <ele>48.8182</ele>
        <time>1970-01-01T01:00:00Z</time>
      </trkpt>
      <trkpt lat="58.37795" lon="12.339648">
        <ele>48.8182</ele>
        <time>1970-01-01T01:00:00Z</time>
      </trkpt>
      <trkpt lat="58.37791" lon="12.339486">
        <ele>48.9091</ele>
        <time>1970-01-01T01:00:00Z</time>
      </trkpt>
      <trkpt lat="58.377872" lon="12.339321">
        <ele>49.0909</ele>
        <time>1970-01-01T01:00:00Z</time>
      </trkpt>
      <trkpt lat="58.37782" lon="12.339164">
        <ele>49.2727</ele>
        <time>1970-01-01T01:00:00Z</time>
      </trkpt>
      <trkpt lat="58.377754" lon="12.339022">
        <ele>49.4545</ele>
        <time>1970-01-01T01:00:00Z</time>
      </trkpt>
      <trkpt lat="58.37769" lon="12.338885">
        <ele>49.7273</ele>
        <time>1970-01-01T01:00:00Z</time>
      </trkpt>
      <trkpt lat="58.37762" lon="12.338744">
        <ele>50</ele>
        <time>1970-01-01T01:00:00Z</time>
      </trkpt>
      <trkpt lat="58.377567" lon="12.338604">
        <ele>50.1818</ele>
        <time>1970-01-01T01:00:00Z</time>
      </trkpt>
      <trkpt lat="58.377514" lon="12.33846">
        <ele>50.3636</ele>
        <time>1970-01-01T01:00:00Z</time>
      </trkpt>
      <trkpt lat="58.377575" lon="12.338332">
        <ele>50.5455</ele>
        <time>1970-01-01T01:00:00Z</time>
      </trkpt>
      <trkpt lat="58.37766" lon="12.338251">
        <ele>50.7273</ele>
        <time>1970-01-01T01:00:00Z</time>
      </trkpt>
      <trkpt lat="58.377724" lon="12.338104">
        <ele>50.9091</ele>
        <time>1970-01-01T01:00:00Z</time>
      </trkpt>
      <trkpt lat="58.377785" lon="12.33796">
        <ele>51</ele>
        <time>1970-01-01T01:00:00Z</time>
      </trkpt>
      <trkpt lat="58.377846" lon="12.337806">
        <ele>51</ele>
        <time>1970-01-01T01:00:00Z</time>
      </trkpt>
      <trkpt lat="58.377914" lon="12.337656">
        <ele>51</ele>
        <time>1970-01-01T01:00:00Z</time>
      </trkpt>
      <trkpt lat="58.377975" lon="12.337507">
        <ele>51</ele>
        <time>1970-01-01T01:00:00Z</time>
      </trkpt>
      <trkpt lat="58.378048" lon="12.337391">
        <ele>51</ele>
        <time>1970-01-01T01:00:00Z</time>
      </trkpt>
      <trkpt lat="58.378113" lon="12.337244">
        <ele>51</ele>
        <time>1970-01-01T01:00:00Z</time>
      </trkpt>
      <trkpt lat="58.378178" lon="12.337106">
        <ele>51</ele>
        <time>1970-01-01T01:00:00Z</time>
      </trkpt>
      <trkpt lat="58.37824" lon="12.336977">
        <ele>51</ele>
        <time>1970-01-01T01:00:00Z</time>
      </trkpt>
      <trkpt lat="58.378296" lon="12.336829">
        <ele>51</ele>
        <time>1970-01-01T01:00:00Z</time>
      </trkpt>
      <trkpt lat="58.378353" lon="12.336696">
        <ele>51.0909</ele>
        <time>1970-01-01T01:00:00Z</time>
      </trkpt>
      <trkpt lat="58.378418" lon="12.336543">
        <ele>51.1818</ele>
        <time>1970-01-01T01:00:00Z</time>
      </trkpt>
      <trkpt lat="58.37847" lon="12.336405">
        <ele>51.2727</ele>
        <time>1970-01-01T01:00:00Z</time>
      </trkpt>
      <trkpt lat="58.37852" lon="12.336259">
        <ele>51.2727</ele>
        <time>1970-01-01T01:00:00Z</time>
      </trkpt>
      <trkpt lat="58.37857" lon="12.336093">
        <ele>51.2727</ele>
        <time>1970-01-01T01:00:00Z</time>
      </trkpt>
      <trkpt lat="58.37863" lon="12.335956">
        <ele>51.2727</ele>
        <time>1970-01-01T01:00:00Z</time>
      </trkpt>
      <trkpt lat="58.378696" lon="12.33582">
        <ele>51.2727</ele>
        <time>1970-01-01T01:00:00Z</time>
      </trkpt>
      <trkpt lat="58.37873" lon="12.335656">
        <ele>51.2727</ele>
        <time>1970-01-01T01:00:00Z</time>
      </trkpt>
      <trkpt lat="58.378757" lon="12.335488">
        <ele>51.2727</ele>
        <time>1970-01-01T01:00:00Z</time>
      </trkpt>
      <trkpt lat="58.3788" lon="12.335331">
        <ele>51.2727</ele>
        <time>1970-01-01T01:00:00Z</time>
      </trkpt>
      <trkpt lat="58.378857" lon="12.335182">
        <ele>51.2727</ele>
        <time>1970-01-01T01:00:00Z</time>
      </trkpt>
      <trkpt lat="58.378918" lon="12.335037">
        <ele>51.2727</ele>
        <time>1970-01-01T01:00:00Z</time>
      </trkpt>
      <trkpt lat="58.378967" lon="12.334874">
        <ele>51.2727</ele>
        <time>1970-01-01T01:00:00Z</time>
      </trkpt>
      <trkpt lat="58.379025" lon="12.334716">
        <ele>51.2727</ele>
        <time>1970-01-01T01:00:00Z</time>
      </trkpt>
      <trkpt lat="58.379074" lon="12.334563">
        <ele>51.4545</ele>
        <time>1970-01-01T01:00:00Z</time>
      </trkpt>
      <trkpt lat="58.379116" lon="12.334409">
        <ele>51.6364</ele>
        <time>1970-01-01T01:00:00Z</time>
      </trkpt>
      <trkpt lat="58.379135" lon="12.334229">
        <ele>51.8182</ele>
        <time>1970-01-01T01:00:00Z</time>
      </trkpt>
      <trkpt lat="58.37917" lon="12.334052">
        <ele>52</ele>
        <time>1970-01-01T01:00:00Z</time>
      </trkpt>
      <trkpt lat="58.37921" lon="12.333881">
        <ele>52.1818</ele>
        <time>1970-01-01T01:00:00Z</time>
      </trkpt>
      <trkpt lat="58.379253" lon="12.333723">
        <ele>52.3636</ele>
        <time>1970-01-01T01:00:00Z</time>
      </trkpt>
      <trkpt lat="58.379295" lon="12.333555">
        <ele>52.5455</ele>
        <time>1970-01-01T01:00:00Z</time>
      </trkpt>
      <trkpt lat="58.379356" lon="12.333395">
        <ele>52.7273</ele>
        <time>1970-01-01T01:00:00Z</time>
      </trkpt>
      <trkpt lat="58.379402" lon="12.33324">
        <ele>52.8182</ele>
        <time>1970-01-01T01:00:00Z</time>
      </trkpt>
      <trkpt lat="58.37945" lon="12.333078">
        <ele>52.9091</ele>
        <time>1970-01-01T01:00:00Z</time>
      </trkpt>
      <trkpt lat="58.37952" lon="12.33294">
        <ele>53</ele>
        <time>1970-01-01T01:00:00Z</time>
      </trkpt>
      <trkpt lat="58.379578" lon="12.332787">
        <ele>53</ele>
        <time>1970-01-01T01:00:00Z</time>
      </trkpt>
      <trkpt lat="58.379612" lon="12.33263">
        <ele>53</ele>
        <time>1970-01-01T01:00:00Z</time>
      </trkpt>
      <trkpt lat="58.379646" lon="12.332458">
        <ele>53</ele>
        <time>1970-01-01T01:00:00Z</time>
      </trkpt>
      <trkpt lat="58.37966" lon="12.332285">
        <ele>53</ele>
        <time>1970-01-01T01:00:00Z</time>
      </trkpt>
      <trkpt lat="58.379707" lon="12.332087">
        <ele>53</ele>
        <time>1970-01-01T01:00:00Z</time>
      </trkpt>
      <trkpt lat="58.37974" lon="12.331919">
        <ele>53</ele>
        <time>1970-01-01T01:00:00Z</time>
      </trkpt>
      <trkpt lat="58.37979" lon="12.331758">
        <ele>53</ele>
        <time>1970-01-01T01:00:00Z</time>
      </trkpt>
      <trkpt lat="58.37983" lon="12.331586">
        <ele>53</ele>
        <time>1970-01-01T01:00:00Z</time>
      </trkpt>
      <trkpt lat="58.379856" lon="12.331411">
        <ele>53</ele>
        <time>1970-01-01T01:00:00Z</time>
      </trkpt>
      <trkpt lat="58.379875" lon="12.331233">
        <ele>53</ele>
        <time>1970-01-01T01:00:00Z</time>
      </trkpt>
      <trkpt lat="58.379917" lon="12.331058">
        <ele>53.0909</ele>
        <time>1970-01-01T01:00:00Z</time>
      </trkpt>
      <trkpt lat="58.379955" lon="12.330905">
        <ele>53.0909</ele>
        <time>1970-01-01T01:00:00Z</time>
      </trkpt>
      <trkpt lat="58.38" lon="12.33072">
        <ele>53.0909</ele>
        <time>1970-01-01T01:00:00Z</time>
      </trkpt>
      <trkpt lat="58.380043" lon="12.330552">
        <ele>53.0909</ele>
        <time>1970-01-01T01:00:00Z</time>
      </trkpt>
      <trkpt lat="58.380077" lon="12.330377">
        <ele>53.0909</ele>
        <time>1970-01-01T01:00:00Z</time>
      </trkpt>
      <trkpt lat="58.380135" lon="12.330222">
        <ele>53.0909</ele>
        <time>1970-01-01T01:00:00Z</time>
      </trkpt>
      <trkpt lat="58.380173" lon="12.330048">
        <ele>53.0909</ele>
        <time>1970-01-01T01:00:00Z</time>
      </trkpt>
      <trkpt lat="58.3802" lon="12.329873">
        <ele>53.0909</ele>
        <time>1970-01-01T01:00:00Z</time>
      </trkpt>
      <trkpt lat="58.380238" lon="12.329699">
        <ele>53.0909</ele>
        <time>1970-01-01T01:00:00Z</time>
      </trkpt>
      <trkpt lat="58.38029" lon="12.329557">
        <ele>53.0909</ele>
        <time>1970-01-01T01:00:00Z</time>
      </trkpt>
      <trkpt lat="58.38029" lon="12.329363">
        <ele>53.0909</ele>
        <time>1970-01-01T01:00:00Z</time>
      </trkpt>
      <trkpt lat="58.380318" lon="12.329169">
        <ele>53</ele>
        <time>1970-01-01T01:00:00Z</time>
      </trkpt>
      <trkpt lat="58.380287" lon="12.328995">
        <ele>53</ele>
        <time>1970-01-01T01:00:00Z</time>
      </trkpt>
      <trkpt lat="58.380222" lon="12.328857">
        <ele>53.0909</ele>
        <time>1970-01-01T01:00:00Z</time>
      </trkpt>
      <trkpt lat="58.380146" lon="12.328737">
        <ele>53.1818</ele>
        <time>1970-01-01T01:00:00Z</time>
      </trkpt>
      <trkpt lat="58.38009" lon="12.328588">
        <ele>53.2727</ele>
        <time>1970-01-01T01:00:00Z</time>
      </trkpt>
      <trkpt lat="58.380043" lon="12.328442">
        <ele>53.4545</ele>
        <time>1970-01-01T01:00:00Z</time>
      </trkpt>
      <trkpt lat="58.38006" lon="12.328265">
        <ele>53.6364</ele>
        <time>1970-01-01T01:00:00Z</time>
      </trkpt>
      <trkpt lat="58.38009" lon="12.328079">
        <ele>53.9091</ele>
        <time>1970-01-01T01:00:00Z</time>
      </trkpt>
      <trkpt lat="58.380116" lon="12.327902">
        <ele>54.2727</ele>
        <time>1970-01-01T01:00:00Z</time>
      </trkpt>
      <trkpt lat="58.38013" lon="12.327716">
        <ele>54.6364</ele>
        <time>1970-01-01T01:00:00Z</time>
      </trkpt>
      <trkpt lat="58.380157" lon="12.327529">
        <ele>55.0909</ele>
        <time>1970-01-01T01:00:00Z</time>
      </trkpt>
      <trkpt lat="58.380188" lon="12.327366">
        <ele>55.5455</ele>
        <time>1970-01-01T01:00:00Z</time>
      </trkpt>
      <trkpt lat="58.380222" lon="12.327201">
        <ele>56</ele>
        <time>1970-01-01T01:00:00Z</time>
      </trkpt>
      <trkpt lat="58.38025" lon="12.327017">
        <ele>56.3636</ele>
        <time>1970-01-01T01:00:00Z</time>
      </trkpt>
      <trkpt lat="58.380283" lon="12.326821">
        <ele>56.7273</ele>
        <time>1970-01-01T01:00:00Z</time>
      </trkpt>
      <trkpt lat="58.380318" lon="12.326653">
        <ele>57.0909</ele>
        <time>1970-01-01T01:00:00Z</time>
      </trkpt>
      <trkpt lat="58.38035" lon="12.32647">
        <ele>57.3636</ele>
        <time>1970-01-01T01:00:00Z</time>
      </trkpt>
      <trkpt lat="58.380386" lon="12.326294">
        <ele>57.6364</ele>
        <time>1970-01-01T01:00:00Z</time>
      </trkpt>
      <trkpt lat="58.38041" lon="12.326124">
        <ele>57.9091</ele>
        <time>1970-01-01T01:00:00Z</time>
      </trkpt>
      <trkpt lat="58.380436" lon="12.325926">
        <ele>58.0909</ele>
        <time>1970-01-01T01:00:00Z</time>
      </trkpt>
      <trkpt lat="58.38047" lon="12.325755">
        <ele>58.1818</ele>
        <time>1970-01-01T01:00:00Z</time>
      </trkpt>
      <trkpt lat="58.3805" lon="12.325582">
        <ele>58.1818</ele>
        <time>1970-01-01T01:00:00Z</time>
      </trkpt>
      <trkpt lat="58.38054" lon="12.325423">
        <ele>58.1818</ele>
        <time>1970-01-01T01:00:00Z</time>
      </trkpt>
      <trkpt lat="58.380585" lon="12.325249">
        <ele>58.1818</ele>
        <time>1970-01-01T01:00:00Z</time>
      </trkpt>
      <trkpt lat="58.38065" lon="12.325118">
        <ele>58.0909</ele>
        <time>1970-01-01T01:00:00Z</time>
      </trkpt>
      <trkpt lat="58.380707" lon="12.32498">
        <ele>58</ele>
        <time>1970-01-01T01:00:00Z</time>
      </trkpt>
      <trkpt lat="58.380756" lon="12.324835">
        <ele>57.8182</ele>
        <time>1970-01-01T01:00:00Z</time>
      </trkpt>
      <trkpt lat="58.380802" lon="12.324683">
        <ele>57.5455</ele>
        <time>1970-01-01T01:00:00Z</time>
      </trkpt>
      <trkpt lat="58.380825" lon="12.324507">
        <ele>57.1818</ele>
        <time>1970-01-01T01:00:00Z</time>
      </trkpt>
      <trkpt lat="58.380882" lon="12.324338">
        <ele>56.6364</ele>
        <time>1970-01-01T01:00:00Z</time>
      </trkpt>
      <trkpt lat="58.380913" lon="12.324173">
        <ele>56.4</ele>
        <time>1970-01-01T01:00:00Z</time>
      </trkpt>
      <trkpt lat="58.38093" lon="12.324002">
        <ele>56.2222</ele>
        <time>1970-01-01T01:00:00Z</time>
      </trkpt>
      <trkpt lat="58.380924" lon="12.323807">
        <ele>56</ele>
        <time>1970-01-01T01:00:00Z</time>
      </trkpt>
      <trkpt lat="58.38092" lon="12.323629">
        <ele>55.7143</ele>
        <time>1970-01-01T01:00:00Z</time>
      </trkpt>
      <trkpt lat="58.380913" lon="12.32352">
        <ele>55.3333</ele>
        <time>1970-01-01T01:00:00Z</time>
      </trkpt>
      <trkpt lat="58.38088" lon="12.323495">
        <ele>53</ele>
        <time>1970-01-01T01:00:00Z</time>
      </trkpt>
      <trkpt lat="58.380867" lon="12.323482">
        <ele>53</ele>
        <time>1970-01-01T01:00:00Z</time>
      </trkpt>
      <trkpt lat="58.38086" lon="12.323485">
        <ele>53</ele>
        <time>1970-01-01T01:00:00Z</time>
      </trkpt>
      <trkpt lat="58.380836" lon="12.323412">
        <ele>53</ele>
        <time>1970-01-01T01:00:00Z</time>
      </trkpt>
      <trkpt lat="58.380833" lon="12.32332">
        <ele>53</ele>
        <time>1970-01-01T01:00:00Z</time>
      </trkpt>
      <trkpt lat="58.380833" lon="12.323318">
        <ele>53</ele>
        <time>1970-01-01T01:00:00Z</time>
      </trkpt>
      <trkpt lat="58.380802" lon="12.323369">
        <ele>54.8333</ele>
        <time>1970-01-01T01:00:00Z</time>
      </trkpt>
      <trkpt lat="58.380665" lon="12.323277">
        <ele>55</ele>
        <time>1970-01-01T01:00:00Z</time>
      </trkpt>
      <trkpt lat="58.38057" lon="12.323248">
        <ele>55.125</ele>
        <time>1970-01-01T01:00:00Z</time>
      </trkpt>
      <trkpt lat="58.38048" lon="12.323204">
        <ele>55.2222</ele>
        <time>1970-01-01T01:00:00Z</time>
      </trkpt>
      <trkpt lat="58.380394" lon="12.323163">
        <ele>55.3</ele>
        <time>1970-01-01T01:00:00Z</time>
      </trkpt>
      <trkpt lat="58.38031" lon="12.323087">
        <ele>55.3636</ele>
        <time>1970-01-01T01:00:00Z</time>
      </trkpt>
      <trkpt lat="58.380238" lon="12.322972">
        <ele>55.6364</ele>
        <time>1970-01-01T01:00:00Z</time>
      </trkpt>
      <trkpt lat="58.380146" lon="12.322905">
        <ele>55.8182</ele>
        <time>1970-01-01T01:00:00Z</time>
      </trkpt>
      <trkpt lat="58.38005" lon="12.322834">
        <ele>55.9091</ele>
        <time>1970-01-01T01:00:00Z</time>
      </trkpt>
      <trkpt lat="58.37995" lon="12.322873">
        <ele>56</ele>
        <time>1970-01-01T01:00:00Z</time>
      </trkpt>
      <trkpt lat="58.379845" lon="12.322865">
        <ele>56</ele>
        <time>1970-01-01T01:00:00Z</time>
      </trkpt>
      <trkpt lat="58.37975" lon="12.322837">
        <ele>56</ele>
        <time>1970-01-01T01:00:00Z</time>
      </trkpt>
      <trkpt lat="58.379665" lon="12.322741">
        <ele>56.0909</ele>
        <time>1970-01-01T01:00:00Z</time>
      </trkpt>
      <trkpt lat="58.379585" lon="12.322619">
        <ele>56.1818</ele>
        <time>1970-01-01T01:00:00Z</time>
      </trkpt>
      <trkpt lat="58.37951" lon="12.322524">
        <ele>56.1818</ele>
        <time>1970-01-01T01:00:00Z</time>
      </trkpt>
      <trkpt lat="58.379425" lon="12.322428">
        <ele>56.1818</ele>
        <time>1970-01-01T01:00:00Z</time>
      </trkpt>
      <trkpt lat="58.379333" lon="12.322316">
        <ele>56.1818</ele>
        <time>1970-01-01T01:00:00Z</time>
      </trkpt>
      <trkpt lat="58.379242" lon="12.322237">
        <ele>56.1818</ele>
        <time>1970-01-01T01:00:00Z</time>
      </trkpt>
      <trkpt lat="58.37915" lon="12.322156">
        <ele>56.0909</ele>
        <time>1970-01-01T01:00:00Z</time>
      </trkpt>
      <trkpt lat="58.379055" lon="12.322076">
        <ele>56</ele>
        <time>1970-01-01T01:00:00Z</time>
      </trkpt>
      <trkpt lat="58.378956" lon="12.322014">
        <ele>55.9091</ele>
        <time>1970-01-01T01:00:00Z</time>
      </trkpt>
      <trkpt lat="58.378857" lon="12.32196">
        <ele>55.8182</ele>
        <time>1970-01-01T01:00:00Z</time>
      </trkpt>
      <trkpt lat="58.378757" lon="12.321882">
        <ele>55.7273</ele>
        <time>1970-01-01T01:00:00Z</time>
      </trkpt>
      <trkpt lat="58.378693" lon="12.321761">
        <ele>55.5455</ele>
        <time>1970-01-01T01:00:00Z</time>
      </trkpt>
      <trkpt lat="58.378593" lon="12.321789">
        <ele>55.3636</ele>
        <time>1970-01-01T01:00:00Z</time>
      </trkpt>
      <trkpt lat="58.3785" lon="12.321756">
        <ele>55.2727</ele>
        <time>1970-01-01T01:00:00Z</time>
      </trkpt>
      <trkpt lat="58.378403" lon="12.321697">
        <ele>55.1818</ele>
        <time>1970-01-01T01:00:00Z</time>
      </trkpt>
      <trkpt lat="58.378338" lon="12.321579">
        <ele>55.0909</ele>
        <time>1970-01-01T01:00:00Z</time>
      </trkpt>
      <trkpt lat="58.378246" lon="12.32148">
        <ele>55.0909</ele>
        <time>1970-01-01T01:00:00Z</time>
      </trkpt>
      <trkpt lat="58.378162" lon="12.321386">
        <ele>55.1818</ele>
        <time>1970-01-01T01:00:00Z</time>
      </trkpt>
      <trkpt lat="58.37808" lon="12.321299">
        <ele>55.2727</ele>
        <time>1970-01-01T01:00:00Z</time>
      </trkpt>
      <trkpt lat="58.37799" lon="12.321191">
        <ele>55.2727</ele>
        <time>1970-01-01T01:00:00Z</time>
      </trkpt>
      <trkpt lat="58.37801" lon="12.320989">
        <ele>55.2727</ele>
        <time>1970-01-01T01:00:00Z</time>
      </trkpt>
      <trkpt lat="58.37806" lon="12.320829">
        <ele>55.2727</ele>
        <time>1970-01-01T01:00:00Z</time>
      </trkpt>
      <trkpt lat="58.37809" lon="12.320642">
        <ele>55.2727</ele>
        <time>1970-01-01T01:00:00Z</time>
      </trkpt>
      <trkpt lat="58.37811" lon="12.320456">
        <ele>55.1818</ele>
        <time>1970-01-01T01:00:00Z</time>
      </trkpt>
      <trkpt lat="58.378136" lon="12.320268">
        <ele>55.0909</ele>
        <time>1970-01-01T01:00:00Z</time>
      </trkpt>
      <trkpt lat="58.378155" lon="12.320094">
        <ele>54.9091</ele>
        <time>1970-01-01T01:00:00Z</time>
      </trkpt>
      <trkpt lat="58.378174" lon="12.31992">
        <ele>54.6364</ele>
        <time>1970-01-01T01:00:00Z</time>
      </trkpt>
      <trkpt lat="58.378204" lon="12.319754">
        <ele>54.1818</ele>
        <time>1970-01-01T01:00:00Z</time>
      </trkpt>
      <trkpt lat="58.378254" lon="12.319594">
        <ele>53.6364</ele>
        <time>1970-01-01T01:00:00Z</time>
      </trkpt>
      <trkpt lat="58.378296" lon="12.319442">
        <ele>53.0909</ele>
        <time>1970-01-01T01:00:00Z</time>
      </trkpt>
      <trkpt lat="58.378345" lon="12.319286">
        <ele>52.6364</ele>
        <time>1970-01-01T01:00:00Z</time>
      </trkpt>
      <trkpt lat="58.37836" lon="12.319109">
        <ele>52.1818</ele>
        <time>1970-01-01T01:00:00Z</time>
      </trkpt>
      <trkpt lat="58.378418" lon="12.318959">
        <ele>51.7273</ele>
        <time>1970-01-01T01:00:00Z</time>
      </trkpt>
      <trkpt lat="58.37851" lon="12.318923">
        <ele>51.2727</ele>
        <time>1970-01-01T01:00:00Z</time>
      </trkpt>
      <trkpt lat="58.378613" lon="12.318966">
        <ele>50.9091</ele>
        <time>1970-01-01T01:00:00Z</time>
      </trkpt>
      <trkpt lat="58.37871" lon="12.318963">
        <ele>50.5455</ele>
        <time>1970-01-01T01:00:00Z</time>
      </trkpt>
      <trkpt lat="58.378807" lon="12.318997">
        <ele>50.2727</ele>
        <time>1970-01-01T01:00:00Z</time>
      </trkpt>
      <trkpt lat="58.37889" lon="12.319052">
        <ele>50.0909</ele>
        <time>1970-01-01T01:00:00Z</time>
      </trkpt>
      <trkpt lat="58.378994" lon="12.319049">
        <ele>50</ele>
        <time>1970-01-01T01:00:00Z</time>
      </trkpt>
      <trkpt lat="58.37909" lon="12.319053">
        <ele>50.0909</ele>
        <time>1970-01-01T01:00:00Z</time>
      </trkpt>
      <trkpt lat="58.379185" lon="12.319103">
        <ele>50.1818</ele>
        <time>1970-01-01T01:00:00Z</time>
      </trkpt>
      <trkpt lat="58.37928" lon="12.319105">
        <ele>50.2727</ele>
        <time>1970-01-01T01:00:00Z</time>
      </trkpt>
      <trkpt lat="58.379368" lon="12.319159">
        <ele>50.3636</ele>
        <time>1970-01-01T01:00:00Z</time>
      </trkpt>
      <trkpt lat="58.379448" lon="12.319228">
        <ele>50.4545</ele>
        <time>1970-01-01T01:00:00Z</time>
      </trkpt>
      <trkpt lat="58.379543" lon="12.319287">
        <ele>50.5455</ele>
        <time>1970-01-01T01:00:00Z</time>
      </trkpt>
      <trkpt lat="58.37964" lon="12.319364">
        <ele>50.6364</ele>
        <time>1970-01-01T01:00:00Z</time>
      </trkpt>
      <trkpt lat="58.379715" lon="12.319459">
        <ele>50.7273</ele>
        <time>1970-01-01T01:00:00Z</time>
      </trkpt>
      <trkpt lat="58.37981" lon="12.319524">
        <ele>50.8182</ele>
        <time>1970-01-01T01:00:00Z</time>
      </trkpt>
      <trkpt lat="58.37989" lon="12.319626">
        <ele>51</ele>
        <time>1970-01-01T01:00:00Z</time>
      </trkpt>
      <trkpt lat="58.379974" lon="12.319701">
        <ele>51.1818</ele>
        <time>1970-01-01T01:00:00Z</time>
      </trkpt>
      <trkpt lat="58.380062" lon="12.319769">
        <ele>51.2727</ele>
        <time>1970-01-01T01:00:00Z</time>
      </trkpt>
      <trkpt lat="58.380154" lon="12.319797">
        <ele>51.3636</ele>
        <time>1970-01-01T01:00:00Z</time>
      </trkpt>
      <trkpt lat="58.38025" lon="12.319839">
        <ele>51.4545</ele>
        <time>1970-01-01T01:00:00Z</time>
      </trkpt>
      <trkpt lat="58.38034" lon="12.319894">
        <ele>51.6364</ele>
        <time>1970-01-01T01:00:00Z</time>
      </trkpt>
      <trkpt lat="58.380424" lon="12.319952">
        <ele>51.8182</ele>
        <time>1970-01-01T01:00:00Z</time>
      </trkpt>
      <trkpt lat="58.38051" lon="12.32003">
        <ele>52</ele>
        <time>1970-01-01T01:00:00Z</time>
      </trkpt>
      <trkpt lat="58.380596" lon="12.320096">
        <ele>52.0909</ele>
        <time>1970-01-01T01:00:00Z</time>
      </trkpt>
      <trkpt lat="58.380688" lon="12.320142">
        <ele>52.1818</ele>
        <time>1970-01-01T01:00:00Z</time>
      </trkpt>
      <trkpt lat="58.38077" lon="12.320198">
        <ele>52.0909</ele>
        <time>1970-01-01T01:00:00Z</time>
      </trkpt>
      <trkpt lat="58.380867" lon="12.320264">
        <ele>51.9091</ele>
        <time>1970-01-01T01:00:00Z</time>
      </trkpt>
      <trkpt lat="58.380947" lon="12.320365">
        <ele>51.6364</ele>
        <time>1970-01-01T01:00:00Z</time>
      </trkpt>
      <trkpt lat="58.38104" lon="12.320424">
        <ele>51.3636</ele>
        <time>1970-01-01T01:00:00Z</time>
      </trkpt>
      <trkpt lat="58.381126" lon="12.32036">
        <ele>51</ele>
        <time>1970-01-01T01:00:00Z</time>
      </trkpt>
      <trkpt lat="58.381153" lon="12.320195">
        <ele>50.6364</ele>
        <time>1970-01-01T01:00:00Z</time>
      </trkpt>
      <trkpt lat="58.381184" lon="12.320005">
        <ele>50.1818</ele>
        <time>1970-01-01T01:00:00Z</time>
      </trkpt>
      <trkpt lat="58.381214" lon="12.319838">
        <ele>49.7273</ele>
        <time>1970-01-01T01:00:00Z</time>
      </trkpt>
      <trkpt lat="58.381245" lon="12.319667">
        <ele>49.1818</ele>
        <time>1970-01-01T01:00:00Z</time>
      </trkpt>
      <trkpt lat="58.381275" lon="12.319481">
        <ele>48.7273</ele>
        <time>1970-01-01T01:00:00Z</time>
      </trkpt>
      <trkpt lat="58.38129" lon="12.319295">
        <ele>48.3636</ele>
        <time>1970-01-01T01:00:00Z</time>
      </trkpt>
      <trkpt lat="58.381306" lon="12.319116">
        <ele>48.2727</ele>
        <time>1970-01-01T01:00:00Z</time>
      </trkpt>
      <trkpt lat="58.381325" lon="12.318934">
        <ele>48.0909</ele>
        <time>1970-01-01T01:00:00Z</time>
      </trkpt>
      <trkpt lat="58.381355" lon="12.31876">
        <ele>48</ele>
        <time>1970-01-01T01:00:00Z</time>
      </trkpt>
      <trkpt lat="58.381386" lon="12.31858">
        <ele>47.9091</ele>
        <time>1970-01-01T01:00:00Z</time>
      </trkpt>
      <trkpt lat="58.381413" lon="12.318409">
        <ele>47.8182</ele>
        <time>1970-01-01T01:00:00Z</time>
      </trkpt>
      <trkpt lat="58.38143" lon="12.318215">
        <ele>47.8182</ele>
        <time>1970-01-01T01:00:00Z</time>
      </trkpt>
      <trkpt lat="58.381447" lon="12.318031">
        <ele>47.8182</ele>
        <time>1970-01-01T01:00:00Z</time>
      </trkpt>
      <trkpt lat="58.381477" lon="12.317852">
        <ele>47.8182</ele>
        <time>1970-01-01T01:00:00Z</time>
      </trkpt>
      <trkpt lat="58.381504" lon="12.31766">
        <ele>47.9091</ele>
        <time>1970-01-01T01:00:00Z</time>
      </trkpt>
      <trkpt lat="58.38152" lon="12.317482">
        <ele>47.8182</ele>
        <time>1970-01-01T01:00:00Z</time>
      </trkpt>
      <trkpt lat="58.38148" lon="12.317316">
        <ele>47.6364</ele>
        <time>1970-01-01T01:00:00Z</time>
      </trkpt>
      <trkpt lat="58.381447" lon="12.317145">
        <ele>47.3636</ele>
        <time>1970-01-01T01:00:00Z</time>
      </trkpt>
      <trkpt lat="58.381424" lon="12.316966">
        <ele>47.0909</ele>
        <time>1970-01-01T01:00:00Z</time>
      </trkpt>
      <trkpt lat="58.381454" lon="12.316792">
        <ele>46.8182</ele>
        <time>1970-01-01T01:00:00Z</time>
      </trkpt>
      <trkpt lat="58.38163" lon="12.316884">
        <ele>46.5455</ele>
        <time>1970-01-01T01:00:00Z</time>
      </trkpt>
      <trkpt lat="58.381706" lon="12.317003">
        <ele>46.3636</ele>
        <time>1970-01-01T01:00:00Z</time>
      </trkpt>
      <trkpt lat="58.38181" lon="12.317014">
        <ele>46.0909</ele>
        <time>1970-01-01T01:00:00Z</time>
      </trkpt>
      <trkpt lat="58.381897" lon="12.317059">
        <ele>45.9091</ele>
        <time>1970-01-01T01:00:00Z</time>
      </trkpt>
      <trkpt lat="58.38199" lon="12.317096">
        <ele>45.7273</ele>
        <time>1970-01-01T01:00:00Z</time>
      </trkpt>
      <trkpt lat="58.382076" lon="12.317174">
        <ele>45.5455</ele>
        <time>1970-01-01T01:00:00Z</time>
      </trkpt>
      <trkpt lat="58.38207" lon="12.317352">
        <ele>45.5455</ele>
        <time>1970-01-01T01:00:00Z</time>
      </trkpt>
      <trkpt lat="58.38203" lon="12.317521">
        <ele>45.5455</ele>
        <time>1970-01-01T01:00:00Z</time>
      </trkpt>
      <trkpt lat="58.38202" lon="12.317697">
        <ele>45.5455</ele>
        <time>1970-01-01T01:00:00Z</time>
      </trkpt>
      <trkpt lat="58.382015" lon="12.317869">
        <ele>45.7273</ele>
        <time>1970-01-01T01:00:00Z</time>
      </trkpt>
      <trkpt lat="58.38199" lon="12.318057">
        <ele>45.9091</ele>
        <time>1970-01-01T01:00:00Z</time>
      </trkpt>
      <trkpt lat="58.381916" lon="12.318171">
        <ele>46.0909</ele>
        <time>1970-01-01T01:00:00Z</time>
      </trkpt>
      <trkpt lat="58.38184" lon="12.318273">
        <ele>46.2727</ele>
        <time>1970-01-01T01:00:00Z</time>
      </trkpt>
      <trkpt lat="58.381767" lon="12.318391">
        <ele>46.5455</ele>
        <time>1970-01-01T01:00:00Z</time>
      </trkpt>
      <trkpt lat="58.3817" lon="12.318524">
        <ele>46.7273</ele>
        <time>1970-01-01T01:00:00Z</time>
      </trkpt>
      <trkpt lat="58.381645" lon="12.318667">
        <ele>46.9091</ele>
        <time>1970-01-01T01:00:00Z</time>
      </trkpt>
      <trkpt lat="58.381596" lon="12.318824">
        <ele>47.0909</ele>
        <time>1970-01-01T01:00:00Z</time>
      </trkpt>
      <trkpt lat="58.381527" lon="12.31897">
        <ele>47.2727</ele>
        <time>1970-01-01T01:00:00Z</time>
      </trkpt>
      <trkpt lat="58.38147" lon="12.319114">
        <ele>47.5455</ele>
        <time>1970-01-01T01:00:00Z</time>
      </trkpt>
      <trkpt lat="58.381428" lon="12.319272">
        <ele>47.9091</ele>
        <time>1970-01-01T01:00:00Z</time>
      </trkpt>
      <trkpt lat="58.38136" lon="12.319398">
        <ele>48.1818</ele>
        <time>1970-01-01T01:00:00Z</time>
      </trkpt>
      <trkpt lat="58.381332" lon="12.319577">
        <ele>48.5455</ele>
        <time>1970-01-01T01:00:00Z</time>
      </trkpt>
      <trkpt lat="58.381306" lon="12.319757">
        <ele>49</ele>
        <time>1970-01-01T01:00:00Z</time>
      </trkpt>
      <trkpt lat="58.381283" lon="12.319924">
        <ele>49.4545</ele>
        <time>1970-01-01T01:00:00Z</time>
      </trkpt>
      <trkpt lat="58.381264" lon="12.320094">
        <ele>49.8182</ele>
        <time>1970-01-01T01:00:00Z</time>
      </trkpt>
      <trkpt lat="58.381245" lon="12.320274">
        <ele>50.1818</ele>
        <time>1970-01-01T01:00:00Z</time>
      </trkpt>
      <trkpt lat="58.381275" lon="12.32044">
        <ele>50.5455</ele>
        <time>1970-01-01T01:00:00Z</time>
      </trkpt>
      <trkpt lat="58.381355" lon="12.320538">
        <ele>50.9091</ele>
        <time>1970-01-01T01:00:00Z</time>
      </trkpt>
      <trkpt lat="58.381435" lon="12.32062">
        <ele>51.1818</ele>
        <time>1970-01-01T01:00:00Z</time>
      </trkpt>
      <trkpt lat="58.381523" lon="12.320704">
        <ele>51.1818</ele>
        <time>1970-01-01T01:00:00Z</time>
      </trkpt>
      <trkpt lat="58.3816" lon="12.320824">
        <ele>51.0909</ele>
        <time>1970-01-01T01:00:00Z</time>
      </trkpt>
      <trkpt lat="58.38167" lon="12.320689">
        <ele>51</ele>
        <time>1970-01-01T01:00:00Z</time>
      </trkpt>
      <trkpt lat="58.381737" lon="12.320555">
        <ele>50.7273</ele>
        <time>1970-01-01T01:00:00Z</time>
      </trkpt>
      <trkpt lat="58.381817" lon="12.320441">
        <ele>50.4545</ele>
        <time>1970-01-01T01:00:00Z</time>
      </trkpt>
      <trkpt lat="58.381905" lon="12.320362">
        <ele>50.1818</ele>
        <time>1970-01-01T01:00:00Z</time>
      </trkpt>
      <trkpt lat="58.382008" lon="12.320342">
        <ele>49.9091</ele>
        <time>1970-01-01T01:00:00Z</time>
      </trkpt>
      <trkpt lat="58.382107" lon="12.320316">
        <ele>49.5455</ele>
        <time>1970-01-01T01:00:00Z</time>
      </trkpt>
      <trkpt lat="58.38221" lon="12.320298">
        <ele>49.2727</ele>
        <time>1970-01-01T01:00:00Z</time>
      </trkpt>
      <trkpt lat="58.382305" lon="12.320314">
        <ele>49</ele>
        <time>1970-01-01T01:00:00Z</time>
      </trkpt>
      <trkpt lat="58.382393" lon="12.320378">
        <ele>48.8182</ele>
        <time>1970-01-01T01:00:00Z</time>
      </trkpt>
      <trkpt lat="58.382496" lon="12.320349">
        <ele>48.8182</ele>
        <time>1970-01-01T01:00:00Z</time>
      </trkpt>
      <trkpt lat="58.382584" lon="12.320292">
        <ele>48.7273</ele>
        <time>1970-01-01T01:00:00Z</time>
      </trkpt>
      <trkpt lat="58.38268" lon="12.320274">
        <ele>48.6364</ele>
        <time>1970-01-01T01:00:00Z</time>
      </trkpt>
      <trkpt lat="58.38278" lon="12.320291">
        <ele>48.6364</ele>
        <time>1970-01-01T01:00:00Z</time>
      </trkpt>
      <trkpt lat="58.382874" lon="12.320307">
        <ele>48.4545</ele>
        <time>1970-01-01T01:00:00Z</time>
      </trkpt>
      <trkpt lat="58.382965" lon="12.320365">
        <ele>48.3636</ele>
        <time>1970-01-01T01:00:00Z</time>
      </trkpt>
      <trkpt lat="58.383064" lon="12.320386">
        <ele>48.3636</ele>
        <time>1970-01-01T01:00:00Z</time>
      </trkpt>
      <trkpt lat="58.383156" lon="12.320392">
        <ele>48.5455</ele>
        <time>1970-01-01T01:00:00Z</time>
      </trkpt>
      <trkpt lat="58.38325" lon="12.320348">
        <ele>48.6364</ele>
        <time>1970-01-01T01:00:00Z</time>
      </trkpt>
      <trkpt lat="58.383343" lon="12.320319">
        <ele>48.7273</ele>
        <time>1970-01-01T01:00:00Z</time>
      </trkpt>
      <trkpt lat="58.383434" lon="12.320392">
        <ele>48.9091</ele>
        <time>1970-01-01T01:00:00Z</time>
      </trkpt>
      <trkpt lat="58.383514" lon="12.320479">
        <ele>49</ele>
        <time>1970-01-01T01:00:00Z</time>
      </trkpt>
      <trkpt lat="58.383606" lon="12.32054">
        <ele>49.1818</ele>
        <time>1970-01-01T01:00:00Z</time>
      </trkpt>
      <trkpt lat="58.383694" lon="12.320598">
        <ele>49.2727</ele>
        <time>1970-01-01T01:00:00Z</time>
      </trkpt>
      <trkpt lat="58.38378" lon="12.320644">
        <ele>49.2727</ele>
        <time>1970-01-01T01:00:00Z</time>
      </trkpt>
      <trkpt lat="58.383873" lon="12.320709">
        <ele>49.3636</ele>
        <time>1970-01-01T01:00:00Z</time>
      </trkpt>
      <trkpt lat="58.38396" lon="12.320762">
        <ele>49.2727</ele>
        <time>1970-01-01T01:00:00Z</time>
      </trkpt>
      <trkpt lat="58.384052" lon="12.320755">
        <ele>49.1818</ele>
        <time>1970-01-01T01:00:00Z</time>
      </trkpt>
      <trkpt lat="58.384148" lon="12.320793">
        <ele>49</ele>
        <time>1970-01-01T01:00:00Z</time>
      </trkpt>
      <trkpt lat="58.38424" lon="12.32084">
        <ele>48.8182</ele>
        <time>1970-01-01T01:00:00Z</time>
      </trkpt>
      <trkpt lat="58.384342" lon="12.320859">
        <ele>48.6364</ele>
        <time>1970-01-01T01:00:00Z</time>
      </trkpt>
      <trkpt lat="58.384438" lon="12.320913">
        <ele>48.3636</ele>
        <time>1970-01-01T01:00:00Z</time>
      </trkpt>
      <trkpt lat="58.384525" lon="12.320994">
        <ele>48.1818</ele>
        <time>1970-01-01T01:00:00Z</time>
      </trkpt>
      <trkpt lat="58.384605" lon="12.321074">
        <ele>48</ele>
        <time>1970-01-01T01:00:00Z</time>
      </trkpt>
      <trkpt lat="58.384693" lon="12.321147">
        <ele>47.9091</ele>
        <time>1970-01-01T01:00:00Z</time>
      </trkpt>
      <trkpt lat="58.384792" lon="12.321218">
        <ele>47.9091</ele>
        <time>1970-01-01T01:00:00Z</time>
      </trkpt>
      <trkpt lat="58.384888" lon="12.32127">
        <ele>47.9091</ele>
        <time>1970-01-01T01:00:00Z</time>
      </trkpt>
      <trkpt lat="58.38498" lon="12.321324">
        <ele>48.0909</ele>
        <time>1970-01-01T01:00:00Z</time>
      </trkpt>
      <trkpt lat="58.385067" lon="12.321413">
        <ele>48.1818</ele>
        <time>1970-01-01T01:00:00Z</time>
      </trkpt>
      <trkpt lat="58.385128" lon="12.321555">
        <ele>48.2727</ele>
        <time>1970-01-01T01:00:00Z</time>
      </trkpt>
      <trkpt lat="58.385174" lon="12.321731">
        <ele>48.3636</ele>
        <time>1970-01-01T01:00:00Z</time>
      </trkpt>
      <trkpt lat="58.385212" lon="12.321918">
        <ele>48.4545</ele>
        <time>1970-01-01T01:00:00Z</time>
      </trkpt>
      <trkpt lat="58.385246" lon="12.32209">
        <ele>48.5455</ele>
        <time>1970-01-01T01:00:00Z</time>
      </trkpt>
      <trkpt lat="58.3853" lon="12.322227">
        <ele>48.6364</ele>
        <time>1970-01-01T01:00:00Z</time>
      </trkpt>
      <trkpt lat="58.385384" lon="12.322323">
        <ele>48.8182</ele>
        <time>1970-01-01T01:00:00Z</time>
      </trkpt>
      <trkpt lat="58.38547" lon="12.322391">
        <ele>49</ele>
        <time>1970-01-01T01:00:00Z</time>
      </trkpt>
      <trkpt lat="58.38555" lon="12.322469">
        <ele>49.1818</ele>
        <time>1970-01-01T01:00:00Z</time>
      </trkpt>
      <trkpt lat="58.385643" lon="12.322543">
        <ele>49.3636</ele>
        <time>1970-01-01T01:00:00Z</time>
      </trkpt>
      <trkpt lat="58.38573" lon="12.32262">
        <ele>49.4545</ele>
        <time>1970-01-01T01:00:00Z</time>
      </trkpt>
      <trkpt lat="58.385822" lon="12.322685">
        <ele>49.5455</ele>
        <time>1970-01-01T01:00:00Z</time>
      </trkpt>
      <trkpt lat="58.38591" lon="12.322741">
        <ele>49.6364</ele>
        <time>1970-01-01T01:00:00Z</time>
      </trkpt>
      <trkpt lat="58.385998" lon="12.322803">
        <ele>49.8182</ele>
        <time>1970-01-01T01:00:00Z</time>
      </trkpt>
      <trkpt lat="58.386086" lon="12.322877">
        <ele>50</ele>
        <time>1970-01-01T01:00:00Z</time>
      </trkpt>
      <trkpt lat="58.386177" lon="12.322946">
        <ele>50.2727</ele>
        <time>1970-01-01T01:00:00Z</time>
      </trkpt>
      <trkpt lat="58.386265" lon="12.323021">
        <ele>50.6364</ele>
        <time>1970-01-01T01:00:00Z</time>
      </trkpt>
      <trkpt lat="58.386345" lon="12.323144">
        <ele>50.9091</ele>
        <time>1970-01-01T01:00:00Z</time>
      </trkpt>
      <trkpt lat="58.386402" lon="12.323291">
        <ele>51.1818</ele>
        <time>1970-01-01T01:00:00Z</time>
      </trkpt>
      <trkpt lat="58.386406" lon="12.323481">
        <ele>51.4545</ele>
        <time>1970-01-01T01:00:00Z</time>
      </trkpt>
      <trkpt lat="58.38639" lon="12.323661">
        <ele>51.7273</ele>
        <time>1970-01-01T01:00:00Z</time>
      </trkpt>
      <trkpt lat="58.38637" lon="12.32385">
        <ele>52</ele>
        <time>1970-01-01T01:00:00Z</time>
      </trkpt>
      <trkpt lat="58.38634" lon="12.324033">
        <ele>52.1818</ele>
        <time>1970-01-01T01:00:00Z</time>
      </trkpt>
      <trkpt lat="58.386322" lon="12.324221">
        <ele>52.3636</ele>
        <time>1970-01-01T01:00:00Z</time>
      </trkpt>
      <trkpt lat="58.386337" lon="12.324408">
        <ele>52.3636</ele>
        <time>1970-01-01T01:00:00Z</time>
      </trkpt>
      <trkpt lat="58.386402" lon="12.324549">
        <ele>52.3636</ele>
        <time>1970-01-01T01:00:00Z</time>
      </trkpt>
      <trkpt lat="58.386497" lon="12.324636">
        <ele>52.1818</ele>
        <time>1970-01-01T01:00:00Z</time>
      </trkpt>
      <trkpt lat="58.38659" lon="12.324656">
        <ele>51.8182</ele>
        <time>1970-01-01T01:00:00Z</time>
      </trkpt>
      <trkpt lat="58.38668" lon="12.324649">
        <ele>51.4545</ele>
        <time>1970-01-01T01:00:00Z</time>
      </trkpt>
      <trkpt lat="58.38678" lon="12.324631">
        <ele>51</ele>
        <time>1970-01-01T01:00:00Z</time>
      </trkpt>
      <trkpt lat="58.38687" lon="12.32458">
        <ele>50.5455</ele>
        <time>1970-01-01T01:00:00Z</time>
      </trkpt>
      <trkpt lat="58.38696" lon="12.324561">
        <ele>50.0909</ele>
        <time>1970-01-01T01:00:00Z</time>
      </trkpt>
      <trkpt lat="58.38705" lon="12.324566">
        <ele>49.6364</ele>
        <time>1970-01-01T01:00:00Z</time>
      </trkpt>
      <trkpt lat="58.387146" lon="12.324589">
        <ele>49.2727</ele>
        <time>1970-01-01T01:00:00Z</time>
      </trkpt>
      <trkpt lat="58.38723" lon="12.324688">
        <ele>49</ele>
        <time>1970-01-01T01:00:00Z</time>
      </trkpt>
      <trkpt lat="58.387222" lon="12.324863">
        <ele>48.8182</ele>
        <time>1970-01-01T01:00:00Z</time>
      </trkpt>
      <trkpt lat="58.3872" lon="12.325059">
        <ele>48.6364</ele>
        <time>1970-01-01T01:00:00Z</time>
      </trkpt>
      <trkpt lat="58.387184" lon="12.32525">
        <ele>48.5455</ele>
        <time>1970-01-01T01:00:00Z</time>
      </trkpt>
      <trkpt lat="58.38723" lon="12.325416">
        <ele>48.4545</ele>
        <time>1970-01-01T01:00:00Z</time>
      </trkpt>
      <trkpt lat="58.38732" lon="12.325477">
        <ele>48.3636</ele>
        <time>1970-01-01T01:00:00Z</time>
      </trkpt>
      <trkpt lat="58.387413" lon="12.325518">
        <ele>48.3636</ele>
        <time>1970-01-01T01:00:00Z</time>
      </trkpt>
      <trkpt lat="58.387505" lon="12.325557">
        <ele>48.4</ele>
        <time>1970-01-01T01:00:00Z</time>
      </trkpt>
      <trkpt lat="58.387596" lon="12.325599">
        <ele>48.4444</ele>
        <time>1970-01-01T01:00:00Z</time>
      </trkpt>
      <trkpt lat="58.387695" lon="12.325624">
        <ele>48.5</ele>
        <time>1970-01-01T01:00:00Z</time>
      </trkpt>
      <trkpt lat="58.387775" lon="12.32571">
        <ele>48.5714</ele>
        <time>1970-01-01T01:00:00Z</time>
      </trkpt>
      <trkpt lat="58.38779" lon="12.3258">
        <ele>48.5</ele>
        <time>1970-01-01T01:00:00Z</time>
      </trkpt>
      <trkpt lat="58.387802" lon="12.325874">
        <ele>47.1667</ele>
        <time>1970-01-01T01:00:00Z</time>
      </trkpt>
      <trkpt lat="58.387775" lon="12.326075">
        <ele>47.1429</ele>
        <time>1970-01-01T01:00:00Z</time>
      </trkpt>
      <trkpt lat="58.38772" lon="12.326218">
        <ele>47.25</ele>
        <time>1970-01-01T01:00:00Z</time>
      </trkpt>
      <trkpt lat="58.387657" lon="12.326355">
        <ele>47.3333</ele>
        <time>1970-01-01T01:00:00Z</time>
      </trkpt>
      <trkpt lat="58.3876" lon="12.326498">
        <ele>47.4</ele>
        <time>1970-01-01T01:00:00Z</time>
      </trkpt>
      <trkpt lat="58.387524" lon="12.3266">
        <ele>47.4545</ele>
        <time>1970-01-01T01:00:00Z</time>
      </trkpt>
      <trkpt lat="58.387455" lon="12.326721">
        <ele>47.5455</ele>
        <time>1970-01-01T01:00:00Z</time>
      </trkpt>
      <trkpt lat="58.38739" lon="12.326846">
        <ele>47.7273</ele>
        <time>1970-01-01T01:00:00Z</time>
      </trkpt>
      <trkpt lat="58.387306" lon="12.326933">
        <ele>48</ele>
        <time>1970-01-01T01:00:00Z</time>
      </trkpt>
      <trkpt lat="58.38722" lon="12.327003">
        <ele>48.2727</ele>
        <time>1970-01-01T01:00:00Z</time>
      </trkpt>
      <trkpt lat="58.387123" lon="12.327057">
        <ele>48.5455</ele>
        <time>1970-01-01T01:00:00Z</time>
      </trkpt>
      <trkpt lat="58.387028" lon="12.327111">
        <ele>48.9091</ele>
        <time>1970-01-01T01:00:00Z</time>
      </trkpt>
      <trkpt lat="58.386936" lon="12.327166">
        <ele>49.2727</ele>
        <time>1970-01-01T01:00:00Z</time>
      </trkpt>
      <trkpt lat="58.38685" lon="12.327228">
        <ele>49.5455</ele>
        <time>1970-01-01T01:00:00Z</time>
      </trkpt>
      <trkpt lat="58.38676" lon="12.327295">
        <ele>49.8182</ele>
        <time>1970-01-01T01:00:00Z</time>
      </trkpt>
      <trkpt lat="58.386673" lon="12.327356">
        <ele>50.1818</ele>
        <time>1970-01-01T01:00:00Z</time>
      </trkpt>
      <trkpt lat="58.386585" lon="12.327393">
        <ele>50.5455</ele>
        <time>1970-01-01T01:00:00Z</time>
      </trkpt>
      <trkpt lat="58.386494" lon="12.327475">
        <ele>50.8182</ele>
        <time>1970-01-01T01:00:00Z</time>
      </trkpt>
      <trkpt lat="58.386402" lon="12.32752">
        <ele>51.0909</ele>
        <time>1970-01-01T01:00:00Z</time>
      </trkpt>
      <trkpt lat="58.386314" lon="12.327583">
        <ele>51.2727</ele>
        <time>1970-01-01T01:00:00Z</time>
      </trkpt>
      <trkpt lat="58.386223" lon="12.327637">
        <ele>51.4545</ele>
        <time>1970-01-01T01:00:00Z</time>
      </trkpt>
      <trkpt lat="58.38614" lon="12.327704">
        <ele>51.6364</ele>
        <time>1970-01-01T01:00:00Z</time>
      </trkpt>
      <trkpt lat="58.386055" lon="12.32779">
        <ele>51.6364</ele>
        <time>1970-01-01T01:00:00Z</time>
      </trkpt>
      <trkpt lat="58.385986" lon="12.327908">
        <ele>51.6364</ele>
        <time>1970-01-01T01:00:00Z</time>
      </trkpt>
      <trkpt lat="58.385933" lon="12.328055">
        <ele>51.5455</ele>
        <time>1970-01-01T01:00:00Z</time>
      </trkpt>
      <trkpt lat="58.385887" lon="12.328211">
        <ele>51.2727</ele>
        <time>1970-01-01T01:00:00Z</time>
      </trkpt>
      <trkpt lat="58.385853" lon="12.328392">
        <ele>50.8182</ele>
        <time>1970-01-01T01:00:00Z</time>
      </trkpt>
      <trkpt lat="58.385807" lon="12.328565">
        <ele>50.3636</ele>
        <time>1970-01-01T01:00:00Z</time>
      </trkpt>
      <trkpt lat="58.385796" lon="12.328744">
        <ele>50</ele>
        <time>1970-01-01T01:00:00Z</time>
      </trkpt>
      <trkpt lat="58.38579" lon="12.328916">
        <ele>49.7273</ele>
        <time>1970-01-01T01:00:00Z</time>
      </trkpt>
      <trkpt lat="58.38575" lon="12.329085">
        <ele>49.4545</ele>
        <time>1970-01-01T01:00:00Z</time>
      </trkpt>
      <trkpt lat="58.38568" lon="12.329209">
        <ele>49.2727</ele>
        <time>1970-01-01T01:00:00Z</time>
      </trkpt>
      <trkpt lat="58.38559" lon="12.329308">
        <ele>49.0909</ele>
        <time>1970-01-01T01:00:00Z</time>
      </trkpt>
      <trkpt lat="58.38551" lon="12.329378">
        <ele>49.0909</ele>
        <time>1970-01-01T01:00:00Z</time>
      </trkpt>
      <trkpt lat="58.385426" lon="12.329455">
        <ele>49.1818</ele>
        <time>1970-01-01T01:00:00Z</time>
      </trkpt>
      <trkpt lat="58.38534" lon="12.329528">
        <ele>49.1</ele>
        <time>1970-01-01T01:00:00Z</time>
      </trkpt>
      <trkpt lat="58.38525" lon="12.329553">
        <ele>49.2222</ele>
        <time>1970-01-01T01:00:00Z</time>
      </trkpt>
      <trkpt lat="58.38516" lon="12.329543">
        <ele>49.5</ele>
        <time>1970-01-01T01:00:00Z</time>
      </trkpt>
      <trkpt lat="58.385067" lon="12.329479">
        <ele>49.8571</ele>
        <time>1970-01-01T01:00:00Z</time>
      </trkpt>
      <trkpt lat="58.385017" lon="12.329405">
        <ele>50.1667</ele>
        <time>1970-01-01T01:00:00Z</time>
      </trkpt>
      <trkpt lat="58.385" lon="12.329335">
        <ele>53.1667</ele>
        <time>1970-01-01T01:00:00Z</time>
      </trkpt>
      <trkpt lat="58.384926" lon="12.329244">
        <ele>53</ele>
        <time>1970-01-01T01:00:00Z</time>
      </trkpt>
      <trkpt lat="58.38484" lon="12.32914">
        <ele>52.75</ele>
        <time>1970-01-01T01:00:00Z</time>
      </trkpt>
      <trkpt lat="58.384743" lon="12.329151">
        <ele>52.4444</ele>
        <time>1970-01-01T01:00:00Z</time>
      </trkpt>
      <trkpt lat="58.38465" lon="12.329247">
        <ele>52.1</ele>
        <time>1970-01-01T01:00:00Z</time>
      </trkpt>
      <trkpt lat="58.384594" lon="12.329397">
        <ele>51.8182</ele>
        <time>1970-01-01T01:00:00Z</time>
      </trkpt>
      <trkpt lat="58.38455" lon="12.329571">
        <ele>51.4545</ele>
        <time>1970-01-01T01:00:00Z</time>
      </trkpt>
      <trkpt lat="58.384518" lon="12.329761">
        <ele>51.0909</ele>
        <time>1970-01-01T01:00:00Z</time>
      </trkpt>
      <trkpt lat="58.384483" lon="12.32993">
        <ele>50.6364</ele>
        <time>1970-01-01T01:00:00Z</time>
      </trkpt>
      <trkpt lat="58.384445" lon="12.330097">
        <ele>50.1818</ele>
        <time>1970-01-01T01:00:00Z</time>
      </trkpt>
      <trkpt lat="58.38441" lon="12.330275">
        <ele>49.8182</ele>
        <time>1970-01-01T01:00:00Z</time>
      </trkpt>
      <trkpt lat="58.384373" lon="12.330452">
        <ele>49.6364</ele>
        <time>1970-01-01T01:00:00Z</time>
      </trkpt>
      <trkpt lat="58.38432" lon="12.330603">
        <ele>49.5455</ele>
        <time>1970-01-01T01:00:00Z</time>
      </trkpt>
      <trkpt lat="58.38427" lon="12.330758">
        <ele>49.6364</ele>
        <time>1970-01-01T01:00:00Z</time>
      </trkpt>
      <trkpt lat="58.384212" lon="12.330894">
        <ele>49.8182</ele>
        <time>1970-01-01T01:00:00Z</time>
      </trkpt>
      <trkpt lat="58.384144" lon="12.331038">
        <ele>50.0909</ele>
        <time>1970-01-01T01:00:00Z</time>
      </trkpt>
      <trkpt lat="58.38407" lon="12.331153">
        <ele>50.4545</ele>
        <time>1970-01-01T01:00:00Z</time>
      </trkpt>
      <trkpt lat="58.384003" lon="12.331276">
        <ele>50.8182</ele>
        <time>1970-01-01T01:00:00Z</time>
      </trkpt>
      <trkpt lat="58.38393" lon="12.33138">
        <ele>51.0909</ele>
        <time>1970-01-01T01:00:00Z</time>
      </trkpt>
      <trkpt lat="58.38385" lon="12.331454">
        <ele>51.2727</ele>
        <time>1970-01-01T01:00:00Z</time>
      </trkpt>
      <trkpt lat="58.383762" lon="12.331543">
        <ele>51.4545</ele>
        <time>1970-01-01T01:00:00Z</time>
      </trkpt>
      <trkpt lat="58.38368" lon="12.331651">
        <ele>51.6364</ele>
        <time>1970-01-01T01:00:00Z</time>
      </trkpt>
      <trkpt lat="58.383617" lon="12.331778">
        <ele>51.7273</ele>
        <time>1970-01-01T01:00:00Z</time>
      </trkpt>
      <trkpt lat="58.38356" lon="12.331923">
        <ele>51.7273</ele>
        <time>1970-01-01T01:00:00Z</time>
      </trkpt>
      <trkpt lat="58.383484" lon="12.332052">
        <ele>51.6364</ele>
        <time>1970-01-01T01:00:00Z</time>
      </trkpt>
      <trkpt lat="58.383415" lon="12.332193">
        <ele>51.6364</ele>
        <time>1970-01-01T01:00:00Z</time>
      </trkpt>
      <trkpt lat="58.38334" lon="12.332288">
        <ele>51.6364</ele>
        <time>1970-01-01T01:00:00Z</time>
      </trkpt>
      <trkpt lat="58.383247" lon="12.332377">
        <ele>51.6364</ele>
        <time>1970-01-01T01:00:00Z</time>
      </trkpt>
      <trkpt lat="58.38315" lon="12.332424">
        <ele>51.6364</ele>
        <time>1970-01-01T01:00:00Z</time>
      </trkpt>
      <trkpt lat="58.38304" lon="12.332458">
        <ele>51.7273</ele>
        <time>1970-01-01T01:00:00Z</time>
      </trkpt>
      <trkpt lat="58.382946" lon="12.332543">
        <ele>52</ele>
        <time>1970-01-01T01:00:00Z</time>
      </trkpt>
      <trkpt lat="58.38287" lon="12.332665">
        <ele>52.2727</ele>
        <time>1970-01-01T01:00:00Z</time>
      </trkpt>
      <trkpt lat="58.382812" lon="12.3328">
        <ele>52.6364</ele>
        <time>1970-01-01T01:00:00Z</time>
      </trkpt>
      <trkpt lat="58.382755" lon="12.332949">
        <ele>53</ele>
        <time>1970-01-01T01:00:00Z</time>
      </trkpt>
      <trkpt lat="58.382698" lon="12.333082">
        <ele>53.2727</ele>
        <time>1970-01-01T01:00:00Z</time>
      </trkpt>
      <trkpt lat="58.382626" lon="12.333206">
        <ele>53.5455</ele>
        <time>1970-01-01T01:00:00Z</time>
      </trkpt>
      <trkpt lat="58.38254" lon="12.333139">
        <ele>53.6364</ele>
        <time>1970-01-01T01:00:00Z</time>
      </trkpt>
      <trkpt lat="58.382465" lon="12.333034">
        <ele>53.7273</ele>
        <time>1970-01-01T01:00:00Z</time>
      </trkpt>
      <trkpt lat="58.38238" lon="12.332965">
        <ele>53.7273</ele>
        <time>1970-01-01T01:00:00Z</time>
      </trkpt>
      <trkpt lat="58.382298" lon="12.332879">
        <ele>53.7273</ele>
        <time>1970-01-01T01:00:00Z</time>
      </trkpt>
      <trkpt lat="58.382206" lon="12.332921">
        <ele>53.7273</ele>
        <time>1970-01-01T01:00:00Z</time>
      </trkpt>
      <trkpt lat="58.38213" lon="12.333039">
        <ele>53.6364</ele>
        <time>1970-01-01T01:00:00Z</time>
      </trkpt>
      <trkpt lat="58.38207" lon="12.333163">
        <ele>53.5455</ele>
        <time>1970-01-01T01:00:00Z</time>
      </trkpt>
      <trkpt lat="58.382008" lon="12.333306">
        <ele>53.2727</ele>
        <time>1970-01-01T01:00:00Z</time>
      </trkpt>
      <trkpt lat="58.38194" lon="12.333436">
        <ele>53</ele>
        <time>1970-01-01T01:00:00Z</time>
      </trkpt>
      <trkpt lat="58.381863" lon="12.333568">
        <ele>52.8182</ele>
        <time>1970-01-01T01:00:00Z</time>
      </trkpt>
      <trkpt lat="58.381813" lon="12.333715">
        <ele>52.6364</ele>
        <time>1970-01-01T01:00:00Z</time>
      </trkpt>
      <trkpt lat="58.381763" lon="12.333899">
        <ele>52.4545</ele>
        <time>1970-01-01T01:00:00Z</time>
      </trkpt>
      <trkpt lat="58.381702" lon="12.334055">
        <ele>52.2727</ele>
        <time>1970-01-01T01:00:00Z</time>
      </trkpt>
      <trkpt lat="58.381645" lon="12.334201">
        <ele>52.0909</ele>
        <time>1970-01-01T01:00:00Z</time>
      </trkpt>
      <trkpt lat="58.381584" lon="12.334348">
        <ele>52</ele>
        <time>1970-01-01T01:00:00Z</time>
      </trkpt>
      <trkpt lat="58.38151" lon="12.334488">
        <ele>51.8182</ele>
        <time>1970-01-01T01:00:00Z</time>
      </trkpt>
      <trkpt lat="58.38144" lon="12.33461">
        <ele>51.6364</ele>
        <time>1970-01-01T01:00:00Z</time>
      </trkpt>
      <trkpt lat="58.38139" lon="12.334753">
        <ele>51.3636</ele>
        <time>1970-01-01T01:00:00Z</time>
      </trkpt>
      <trkpt lat="58.381332" lon="12.334892">
        <ele>51.3</ele>
        <time>1970-01-01T01:00:00Z</time>
      </trkpt>
      <trkpt lat="58.381298" lon="12.335066">
        <ele>51.2222</ele>
        <time>1970-01-01T01:00:00Z</time>
      </trkpt>
      <trkpt lat="58.38129" lon="12.33524">
        <ele>51.125</ele>
        <time>1970-01-01T01:00:00Z</time>
      </trkpt>
      <trkpt lat="58.381325" lon="12.335401">
        <ele>51</ele>
        <time>1970-01-01T01:00:00Z</time>
      </trkpt>
      <trkpt lat="58.381363" lon="12.335475">
        <ele>51</ele>
        <time>1970-01-01T01:00:00Z</time>
      </trkpt>
    </trkseg>
  </trk>
</gpx>